Weather History for Punta Gorda, FL

Change the Weather History Date:

Saturday, November 10, 2012

  Actual Average Record
Temperature  
Mean Temperature 66 °F -  
Max Temperature 79 °F 78 °F 87 °F (2013)
Min Temperature 54 °F 58 °F 46 °F (2007)
Cooling Degree Days 2    
Growing Degree Days 16 (Base 50)    
Moisture  
Dew Point 53 °F    
Average Humidity 66    
Maximum Humidity 86    
Minimum Humidity 38    
Precipitation  
Precipitation 0.00 in - - ()
Sea Level Pressure  
Sea Level Pressure 30.27 in    
Wind  
Wind Speed 7 mph (ENE)    
Max Wind Speed 14 mph    
Max Gust Speed 22 mph    
Visibility 10 miles    
Events      
Averages and records for this station are not official NWS values.
T = Trace of Precipitation, MM = Missing Value Source: NWS Daily Summary

Daily Weather History Graph

Daily Weather History Graph

Search for Another Location

Airport:

Trip Planner

Search our weather history database for the weather conditions in past years. The results will help you decide how hot, cold, wet, or windy it might be!

Date:

Astronomy

Nov. 10, 2012 Rise Set
Actual Time 6:44 AM EST 5:39 PM EST
Civil Twilight 6:20 AM EST 6:03 PM EST
Nautical Twilight 5:52 AM EST 6:31 PM EST
Astronomical Twilight 5:24 AM EST 6:58 PM EST
Moon 3:06 AM EST (11/10) 3:10 PM EST (11/10)
Length of Visible Light 11h 43m
Length of Day
10h 54m
Waning Crescent, 14% of the Moon is Illuminated
Nov 10
Waning Crescent
Nov 13
New
Nov 20
First Quarter
Nov 28
Full
Dec 6
Last Quarter

Hourly Weather History & Observations

Time (EST) Temp. Dew Point Humidity Pressure Visibility Wind Dir Wind Speed Gust Speed Precip Events Conditions
12:53 AM 55.0 °F 50.0 °F 83% 30.25 in 10.0 mi NE 5.8 mph - N/A   Mostly Cloudy
1:53 AM 55.9 °F 51.1 °F 84% 30.25 in 10.0 mi NE 4.6 mph - N/A   Overcast
2:53 AM 54.0 °F 50.0 °F 86% 30.25 in 10.0 mi NE 4.6 mph - N/A   Mostly Cloudy
3:53 AM 55.0 °F 51.1 °F 86% 30.25 in 10.0 mi NE 3.5 mph - N/A   Overcast
4:53 AM 55.0 °F 51.1 °F 86% 30.25 in 10.0 mi NE 6.9 mph - N/A   Scattered Clouds
5:53 AM 54.0 °F 50.0 °F 86% 30.26 in 10.0 mi NE 6.9 mph - N/A   Partly Cloudy
7:53 AM 57.9 °F 51.1 °F 78% 30.30 in 10.0 mi NE 5.8 mph - N/A   Mostly Cloudy
8:53 AM 63.0 °F 53.1 °F 70% 30.31 in 10.0 mi NE 8.1 mph - N/A   Overcast
9:53 AM 71.1 °F 54.0 °F 55% 30.32 in 10.0 mi ENE 11.5 mph - N/A   Scattered Clouds
10:53 AM 75.9 °F 54.0 °F 46% 30.31 in 10.0 mi ENE 13.8 mph - N/A   Partly Cloudy
11:53 AM 75.9 °F 52.0 °F 43% 30.29 in 10.0 mi ENE 11.5 mph 21.9 mph N/A   Mostly Cloudy
12:53 PM 77.0 °F 53.1 °F 43% 30.25 in 10.0 mi ENE 10.4 mph - N/A   Mostly Cloudy
1:53 PM 79.0 °F 51.1 °F 38% 30.22 in 10.0 mi ESE 9.2 mph - N/A   Mostly Cloudy
2:53 PM 75.9 °F 54.0 °F 46% 30.22 in 10.0 mi ENE 10.4 mph - N/A   Mostly Cloudy
3:53 PM 75.9 °F 54.0 °F 46% 30.23 in 10.0 mi East 11.5 mph - N/A   Overcast
4:53 PM 72.0 °F 55.0 °F 55% 30.24 in 10.0 mi East 5.8 mph - N/A   Mostly Cloudy
5:53 PM 66.9 °F 54.0 °F 63% 30.24 in 10.0 mi NE 4.6 mph - N/A   Mostly Cloudy
6:53 PM 69.1 °F 55.0 °F 61% 30.27 in 10.0 mi ENE 5.8 mph - N/A   Overcast
7:53 PM 66.0 °F 55.0 °F 68% 30.28 in 10.0 mi ENE 5.8 mph - N/A   Mostly Cloudy
8:53 PM 62.1 °F 55.0 °F 78% 30.29 in 10.0 mi ENE 5.8 mph - N/A   Partly Cloudy
9:53 PM 61.0 °F 55.0 °F 81% 30.30 in 10.0 mi ENE 5.8 mph - N/A   Clear